DW0465 Weather Reports


Display with metric or nautical units.
time (UTC)temp
F
wind
direction
speed
MPH
gust
MPH
rain 1hr
in
rain 24hr
in
rain mn
in
humidity
%
barometer
mb
20260507144529 54 112 0.0 0.0 0.00 0.00 0.00 50 1010.1
20260507143045 53 112 0.0 0.0 0.00 0.00 0.00 51 1010.3
20260507141522 51 252 0.0 0.0 0.00 0.00 0.00 55 1010.4
20260507140021 50 288 0.0 0.0 0.00 0.00 0.00 57 1010.6
20260507134517 48 186 0.0 0.0 0.00 0.00 0.00 62 1010.6
20260507133015 46 178 0.0 0.0 0.00 0.00 0.00 64 1010.6
20260507131512 44 190 0.0 2.0 0.00 0.00 0.00 67 1011.1
20260507130024 44 186 0.0 2.0 0.00 0.00 0.00 67 1011.0
20260507124504 43 128 0.0 2.0 0.00 0.00 0.00 66 1011.6
20260507123002 43 200 0.0 0.0 0.00 0.00 0.00 65 1011.6
20260507121601 43 201 0.0 0.0 0.00 0.00 0.00 64 1011.4
20260507120059 43 200 0.0 0.0 0.00 0.00 0.00 63 1011.8
20260507114601 43 200 0.0 0.0 0.00 0.00 0.00 61 1011.9
20260507113058 44 128 0.0 0.0 0.00 0.00 0.00 60 1011.9
20260507111558 44 128 0.0 0.0 0.00 0.00 0.00 59 1012.1
20260507110057 43 30 0.0 0.0 0.00 0.00 0.00 63 1012.0
20260507104601 44 30 0.0 0.0 0.00 0.00 0.00 58 1012.0
20260507103056 45 25 0.0 2.0 0.00 0.00 0.00 56 1012.1
20260507101557 45 49 0.0 3.0 0.00 0.00 0.00 52 1012.3
20260507100059 47 32 0.0 5.0 0.00 0.00 0.00 55 1012.4
20260507094554 48 30 0.0 12.0 0.00 0.00 0.00 60 1012.3
20260507093052 49 30 0.0 4.0 0.00 0.00 0.00 60 1012.2
20260507091551 50 22 0.0 4.0 0.00 0.00 0.00 57 1012.0
20260507090058 50 126 0.0 1.0 0.00 0.00 0.00 53 1011.6
20260507084554 51 327 0.0 0.0 0.00 0.00 0.00 53 1011.5
20260507083047 51 324 0.0 3.0 0.00 0.00 0.00 53 1011.8
20260507081551 49 242 0.0 3.0 0.00 0.00 0.00 57 1012.1
20260507080038 46 171 0.0 0.0 0.00 0.00 0.00 52 1012.2
20260507074538 46 179 0.0 1.0 0.00 0.00 0.00 50 1012.2
20260507073034 44 97 0.0 5.0 0.00 0.00 0.00 48 1012.5
20260507071535 42 169 0.0 2.0 0.00 0.00 0.00 49 1012.5
20260507070032 41 125 0.0 0.0 0.00 0.00 0.00 48 1012.4
20260507064535 40 125 0.0 0.0 0.00 0.00 0.00 52 1012.2
20260507063023 40 107 0.0 0.0 0.00 0.00 0.00 56 1012.5
20260507061520 39 106 0.0 0.0 0.00 0.00 0.00 54 1012.5
20260507060015 38 120 0.0 0.0 0.00 0.00 0.00 58 1012.3
20260507054515 38 120 0.0 0.0 0.00 0.00 0.00 53 1012.3
20260507053015 38 117 0.0 0.0 0.00 0.00 0.00 52 1012.2
20260507051512 39 150 0.0 1.0 0.00 0.00 0.00 47 1012.1
20260507050031 40 116 0.0 0.0 0.00 0.00 0.00 44 1012.3
20260507044510 41 53 0.0 0.0 0.00 0.00 0.00 46 1012.6
20260507043011 42 172 0.0 0.0 0.00 0.00 0.00 41 1012.6
20260507041521 42 180 0.0 0.0 0.00 0.00 0.00 42 1012.8
20260507040009 44 90 0.0 0.0 0.00 0.00 0.00 38 1013.1
20260507034508 46 84 0.0 0.0 0.00 0.00 0.00 33 1012.9
20260507033008 47 165 0.0 1.0 0.00 0.00 0.00 32 1012.9
20260507031509 47 170 0.0 1.0 0.00 0.00 0.00 32 1012.7
20260507030017 49 177 0.0 1.0 0.00 0.00 0.00 31 1012.8
20260507024513 49 153 0.0 0.0 0.00 0.00 0.00 29 1012.7
20260507023006 50 152 0.0 1.0 0.00 0.00 0.00 27 1012.7
20260507021505 52 147 0.0 5.0 0.00 0.00 0.00 26 1012.5
20260507020005 53 133 0.0 3.0 0.00 0.00 0.00 24 1012.4
20260507014511 54 133 0.0 4.0 0.00 0.00 0.00 23 1012.4
20260507013010 55 105 0.0 3.0 0.00 0.00 0.00 23 1012.5
20260507011501 56 115 0.0 3.0 0.00 0.00 0.00 22 1012.7
20260507010111 57 104 0.0 3.0 0.00 0.00 0.00 21 1012.8
20260507004600 57 109 0.0 2.0 0.00 0.00 0.00 21 1012.8
20260507003056 56 93 0.0 1.0 0.00 0.00 0.00 22 1013.0
20260507001557 57 116 0.0 0.0 0.00 0.00 0.00 21 1013.0
20260507000052 58 69 0.0 1.0 0.00 0.00 0.00 20 1013.3
20260506234652 58 317 0.0 2.0 0.00 0.00 0.00 22 1013.3
20260506233050 58 47 0.0 8.0 0.00 0.00 0.00 21 1013.4
20260506231605 57 88 0.0 3.0 0.00 0.00 0.00 21 1013.4
20260506230105 57 107 0.0 5.0 0.00 0.00 0.00 21 1013.6
20260506224547 59 19 0.0 5.0 0.00 0.00 0.00 21 1013.8
20260506223045 59 355 1.0 5.0 0.00 0.00 0.00 20 1013.9
20260506221546 58 273 0.0 6.0 0.00 0.00 0.00 22 1014.3
20260506220047 58 218 0.0 1.0 0.00 0.00 0.00 23 1014.7
20260506214539 57 5 0.0 8.0 0.00 0.00 0.00 22 1015.2
20260506213038 57 349 0.0 1.0 0.00 0.00 0.00 22 1015.5
20260506211534 55 217 0.0 1.0 0.00 0.00 0.00 23 1016.0
20260506210031 54 306 0.0 1.0 0.00 0.00 0.00 24 1016.5
20260506204522 53 98 0.0 2.0 0.00 0.00 0.00 24 1016.8
20260506203019 52 300 0.0 1.0 0.00 0.00 0.00 23 1017.2
20260506201526 52 182 0.0 2.0 0.00 0.00 0.00 23 1017.4
20260506200012 51 170 0.0 1.0 0.00 0.00 0.00 27 1017.5
20260506194509 49 221 0.0 1.0 0.00 0.00 0.00 27 1017.9
20260506193005 48 73 0.0 1.0 0.00 0.00 0.00 29 1018.3
20260506191501 48 116 0.0 0.0 0.00 0.00 0.00 29 1018.6
20260506190058 47 76 0.0 0.0 0.00 0.00 0.00 31 1018.7
20260506184620 46 136 0.0 3.0 0.00 0.00 0.00 30 1019.0
20260506183054 46 144 0.0 2.0 0.00 0.00 0.00 31 1019.2
20260506181549 44 122 0.0 2.0 0.00 0.00 0.00 33 1019.5
20260506180046 43 48 0.0 2.0 0.00 0.00 0.00 38 1019.8
20260506174544 43 138 0.0 1.0 0.00 0.00 0.00 36 1020.0
20260506173046 42 95 0.0 4.0 0.00 0.00 0.00 38 1020.3
20260506171547 41 107 0.0 0.0 0.00 0.00 0.00 39 1020.1
20260506170033 42 288 0.0 1.0 0.00 0.00 0.00 37 1020.3
20260506164528 41 211 0.0 1.0 0.00 0.00 0.00 42 1020.5
20260506163027 40 150 0.0 0.0 0.00 0.00 0.00 43 1020.5
20260506161519 39 149 0.0 1.0 0.00 0.00 0.00 43 1020.7
20260506160017 38 155 0.0 2.0 0.00 0.00 0.00 45 1020.9
20260506154512 38 188 0.0 0.0 0.00 0.00 0.00 46 1021.1
20260506153007 37 199 0.0 0.0 0.00 0.00 0.00 49 1021.2
20260506151502 36 219 0.0 1.0 0.00 0.00 0.00 50 1021.3
20260506150058 35 188 0.0 1.0 0.00 0.00 0.00 51 1021.4